CW8633 Weather Reports


Display with metric or nautical units.
time (UTC)temp
F
wind
direction
speed
MPH
gust
MPH
rain 1hr
in
rain 24hr
in
rain mn
in
humidity
%
barometer
mb
20260503031746 61 74 7.0 11.0 0.00 0.00 0.00 29 1014.9
20260503030732 61 94 9.0 12.0 0.00 0.00 0.00 29 1014.9
20260503025747 61 83 7.0 11.0 0.00 0.00 0.00 31 1014.7
20260503024756 61 80 6.0 10.0 0.00 0.00 0.00 30 1014.7
20260503023721 62 73 4.0 8.0 0.00 0.00 0.00 30 1014.7
20260503022728 62 84 4.0 9.0 0.00 0.00 0.00 31 1014.7
20260503021735 62 101 5.0 7.0 0.00 0.00 0.00 31 1014.7
20260503020725 64 133 3.0 5.0 0.00 0.00 0.00 32 1014.7
20260503015716 65 165 3.0 4.0 0.00 0.00 0.00 31 1014.8
20260503014723 67 238 2.0 3.0 0.00 0.00 0.00 26 1014.8
20260503013726 68 238 2.0 3.0 0.00 0.00 0.00 22 1014.9
20260503012739 68 238 2.0 2.0 0.00 0.00 0.00 21 1014.9
20260503011726 69 238 1.0 2.0 0.00 0.00 0.00 23 1015.0
20260503010733 69 238 1.0 2.0 0.00 0.00 0.00 23 1015.1
20260503005726 69 238 1.0 3.0 0.00 0.00 0.00 21 1015.2
20260503004731 69 238 1.0 4.0 0.00 0.00 0.00 25 1015.2
20260503003721 69 238 1.0 5.0 0.00 0.00 0.00 25 1015.2
20260503002746 69 238 2.0 5.0 0.00 0.00 0.00 20 1015.3
20260503001752 69 238 2.0 8.0 0.00 0.00 0.00 23 1015.4
20260503000749 69 228 2.0 7.0 0.00 0.00 0.00 21 1015.3
20260502235719 70 225 5.0 8.0 0.00 0.00 0.00 19 1015.4
20260502234729 70 254 3.0 9.0 0.00 0.00 0.00 21 1015.5
20260502233736 70 248 4.0 8.0 0.00 0.00 0.00 23 1015.5
20260502232724 70 238 5.0 9.0 0.00 0.00 0.00 21 1015.5
20260502231733 70 211 3.0 6.0 0.00 0.00 0.00 20 1015.6
20260502230725 70 196 3.0 8.0 0.00 0.00 0.00 20 1015.7
20260502225719 70 284 4.0 7.0 0.00 0.00 0.00 23 1015.9
20260502224728 69 199 1.0 11.0 0.00 0.00 0.00 23 1016.0
20260502223736 69 204 5.0 7.0 0.00 0.00 0.00 24 1016.0
20260502222728 69 225 5.0 9.0 0.00 0.00 0.00 24 1016.2
20260502221736 69 190 6.0 8.0 0.00 0.00 0.00 22 1016.4
20260502220723 69 250 1.0 7.0 0.00 0.00 0.00 21 1016.5
20260502215737 69 225 3.0 9.0 0.00 0.00 0.00 24 1016.7
20260502214742 69 204 5.0 12.0 0.00 0.00 0.00 23 1016.9
20260502213750 69 207 5.0 8.0 0.00 0.00 0.00 23 1017.0
20260502212720 69 205 5.0 14.0 0.00 0.00 0.00 24 1017.1
20260502211728 69 212 9.0 12.0 0.00 0.00 0.00 23 1017.2
20260502210716 69 211 6.0 12.0 0.00 0.00 0.00 24 1017.3
20260502205731 69 267 4.0 10.0 0.00 0.00 0.00 25 1017.5
20260502204719 69 196 6.0 14.0 0.00 0.00 0.00 23 1017.5
20260502203724 68 236 6.0 11.0 0.00 0.00 0.00 25 1017.6
20260502202730 68 150 4.0 8.0 0.00 0.00 0.00 27 1017.8
20260502201718 68 207 4.0 8.0 0.00 0.00 0.00 27 1017.9
20260502200722 67 136 2.0 10.0 0.00 0.00 0.00 27 1018.0
20260502195734 67 219 3.0 14.0 0.00 0.00 0.00 27 1018.1
20260502194720 67 196 5.0 11.0 0.00 0.00 0.00 28 1018.2
20260502193726 66 180 5.0 9.0 0.00 0.00 0.00 29 1018.2
20260502192716 66 184 2.0 8.0 0.00 0.00 0.00 26 1018.3
20260502191738 65 250 4.0 8.0 0.00 0.00 0.00 30 1018.5
20260502190723 65 198 2.0 9.0 0.00 0.00 0.00 32 1018.7
20260502185717 65 190 6.0 9.0 0.00 0.00 0.00 32 1018.8
20260502184730 64 160 5.0 8.0 0.00 0.00 0.00 34 1018.9
20260502183756 64 159 4.0 6.0 0.00 0.00 0.00 33 1019.1
20260502182721 64 213 3.0 6.0 0.00 0.00 0.00 36 1019.1
20260502181745 63 143 2.0 6.0 0.00 0.00 0.00 36 1019.2
20260502180727 63 144 0.0 7.0 0.00 0.00 0.00 36 1019.4
20260502163720 56 346 2.0 6.0 0.00 0.00 0.00 48 1019.7
20260502162731 55 332 2.0 5.0 0.00 0.00 0.00 51 1019.8
20260502161735 54 345 1.0 4.0 0.00 0.00 0.00 53 1019.9
20260502160721 53 360 2.0 5.0 0.00 0.00 0.00 54 1019.9
20260502151729 48 257 1.0 3.0 0.00 0.00 0.00 64 1020.0
20260502150731 47 235 1.0 3.0 0.00 0.00 0.00 66 1020.0
20260502130732 36 306 1.0 2.0 0.00 0.00 0.00 81 1019.7
20260502123719 36 306 0.0 3.0 0.00 0.00 0.00 79 1019.6
20260502122747 37 306 2.0 3.0 0.00 0.00 0.00 79 1019.6
20260502121730 37 30 0.0 2.0 0.00 0.00 0.00 79 1019.4
20260502120729 37 30 1.0 3.0 0.00 0.00 0.00 78 1019.4
20260502115727 37 30 0.0 2.0 0.00 0.00 0.00 78 1019.3
20260502114735 37 30 1.0 3.0 0.00 0.00 0.00 77 1019.3
20260502113739 37 29 0.0 2.0 0.00 0.00 0.00 77 1019.4
20260502112746 37 29 0.0 0.0 0.00 0.00 0.00 76 1019.4
20260502111731 38 29 1.0 3.0 0.00 0.00 0.00 75 1019.4
20260502110717 38 29 3.0 4.0 0.00 0.00 0.00 76 1019.4
20260502105728 38 335 3.0 4.0 0.00 0.00 0.00 75 1019.6
20260502104753 38 305 2.0 3.0 0.00 0.00 0.00 75 1019.5
20260502103717 39 302 1.0 2.0 0.00 0.00 0.00 75 1019.6
20260502102727 39 301 0.0 2.0 0.00 0.00 0.00 74 1019.5
20260502101735 40 301 0.0 3.0 0.00 0.00 0.00 73 1019.4
20260502100741 40 57 0.0 0.0 0.00 0.00 0.00 73 1019.3
20260502090720 41 57 2.0 3.0 0.00 0.00 0.00 71 1019.2
20260502070730 44 109 1.0 4.0 0.00 0.00 0.00 65 1019.0
20260502065722 44 109 0.0 3.0 0.00 0.00 0.00 64 1018.9
20260502064724 44 109 3.0 4.0 0.00 0.00 0.00 63 1018.9
20260502063734 44 125 1.0 3.0 0.00 0.00 0.00 65 1018.9
20260502062718 44 125 0.0 4.0 0.00 0.00 0.00 64 1018.9
20260502061723 45 185 1.0 3.0 0.00 0.00 0.00 63 1019.0
20260502060730 45 186 1.0 3.0 0.00 0.00 0.00 63 1018.9
20260502055726 46 185 1.0 3.0 0.00 0.00 0.00 62 1018.9
20260502054739 46 186 1.0 2.0 0.00 0.00 0.00 61 1018.8
20260502053747 46 186 0.0 2.0 0.00 0.00 0.00 59 1018.6
20260502052734 48 186 3.0 6.0 0.00 0.00 0.00 57 1018.5
20260502051741 49 186 0.0 4.0 0.00 0.00 0.00 55 1018.6
20260502050727 49 107 3.0 6.0 0.00 0.00 0.00 53 1018.4
20260502045743 51 248 1.0 9.0 0.00 0.00 0.00 50 1018.4
20260502044731 55 282 3.0 10.0 0.00 0.00 0.00 37 1018.3
20260502043719 55 67 5.0 8.0 0.00 0.00 0.00 37 1018.1
20260502042747 56 69 1.0 5.0 0.00 0.00 0.00 37 1018.2
20260502041718 57 73 5.0 11.0 0.00 0.00 0.00 34 1018.2
20260502040725 57 62 6.0 10.0 0.00 0.00 0.00 33 1018.1
20260502035717 57 78 8.0 11.0 0.00 0.00 0.00 33 1018.0
20260502034723 57 86 4.0 7.0 0.00 0.00 0.00 34 1017.9
20260502033734 58 74 1.0 8.0 0.00 0.00 0.00 35 1017.7
20260502032723 58 90 7.0 9.0 0.00 0.00 0.00 32 1017.6